status,avgMeasuredTime,avgSpeed,extID,medianMeasuredTime,TIMESTAMP,vehicleCount,_id,REPORT_ID
OK,212,25,683,212,2014-08-01T07:50:00,2,20746235,190126
OK,227,23,683,227,2014-08-01T07:55:00,4,20746407,190126
OK,229,23,683,229,2014-08-01T08:00:00,5,20746738,190126
OK,208,26,683,208,2014-08-01T08:05:00,2,20747187,190126
OK,270,20,683,270,2014-08-01T08:10:00,1,20747560,190126
OK,284,19,683,284,2014-08-01T08:15:00,2,20748009,190126
OK,299,18,683,299,2014-08-01T08:20:00,3,20748458,190126
OK,256,21,683,256,2014-08-01T08:25:00,2,20748907,190126
OK,245,22,683,245,2014-08-01T08:30:00,3,20749356,190126
OK,200,27,683,200,2014-08-01T08:35:00,1,20749805,190126
OK,225,24,683,225,2014-08-01T08:40:00,2,20750254,190126
OK,235,23,683,235,2014-08-01T08:45:00,1,20750703,190126
OK,248,21,683,248,2014-08-01T08:50:00,3,20751152,190126
OK,248,21,683,248,2014-08-01T08:55:00,3,20751601,190126
OK,341,15,683,341,2014-08-01T09:00:00,1,20752050,190126
OK,235,23,683,235,2014-08-01T09:05:00,2,20752499,190126
OK,236,23,683,236,2014-08-01T09:10:00,3,20752948,190126
OK,259,20,683,259,2014-08-01T09:15:00,4,20753397,190126
OK,261,20,683,261,2014-08-01T09:20:00,3,20753846,190126
OK,233,23,683,233,2014-08-01T09:25:00,3,20754295,190126
OK,233,23,683,233,2014-08-01T09:30:00,5,20754744,190126
OK,216,25,683,216,2014-08-01T09:35:00,5,20755193,190126
OK,216,25,683,216,2014-08-01T09:40:00,3,20755642,190126
OK,259,20,683,259,2014-08-01T09:45:00,0,20756091,190126
OK,269,20,683,269,2014-08-01T09:50:00,2,20756540,190126
OK,269,20,683,269,2014-08-01T09:55:00,2,20756989,190126
OK,269,20,683,269,2014-08-01T10:00:00,0,20757438,190126
OK,286,18,683,286,2014-08-01T10:05:00,4,20757887,190126
OK,286,18,683,286,2014-08-01T10:10:00,4,20758336,190126
OK,388,13,683,388,2014-08-01T10:15:00,3,20758785,190126
OK,388,13,683,388,2014-08-01T10:20:00,4,20759234,190126
OK,396,13,683,396,2014-08-01T10:25:00,3,20759683,190126
OK,491,11,683,491,2014-08-01T10:30:00,7,20760132,190126
OK,482,11,683,482,2014-08-01T10:35:00,7,20760581,190126
OK,428,12,683,428,2014-08-01T10:40:00,5,20761030,190126
OK,445,12,683,445,2014-08-01T10:45:00,3,20761479,190126
OK,441,12,683,441,2014-08-01T10:50:00,6,20761928,190126
OK,290,18,683,290,2014-08-01T10:55:00,8,20762377,190126
OK,290,18,683,290,2014-08-01T11:00:00,4,20762826,190126
OK,243,22,683,243,2014-08-01T11:05:00,1,20763275,190126
OK,243,22,683,243,2014-08-01T11:10:00,1,20763724,190126
OK,243,22,683,243,2014-08-01T11:15:00,0,20764173,190126
OK,375,14,683,375,2014-08-01T11:20:00,2,20764621,190126
OK,375,14,683,375,2014-08-01T11:25:00,2,20765070,190126
OK,320,16,683,320,2014-08-01T11:30:00,2,20765519,190126
OK,318,17,683,318,2014-08-01T11:35:00,3,20765968,190126
OK,281,19,683,281,2014-08-01T11:40:00,1,20766417,190126
OK,397,13,683,397,2014-08-01T11:45:00,1,20766866,190126
OK,406,13,683,406,2014-08-01T11:50:00,2,20767315,190126
OK,472,11,683,472,2014-08-01T11:55:00,2,20767764,190126
OK,529,10,683,529,2014-08-01T12:00:00,1,20768213,190126
OK,335,16,683,335,2014-08-01T12:05:00,1,20768662,190126
OK,187,29,683,187,2014-08-01T12:10:00,3,20769111,190126
OK,187,29,683,187,2014-08-01T12:15:00,3,20769560,190126
OK,371,14,683,371,2014-08-01T12:20:00,1,20770009,190126
OK,371,14,683,371,2014-08-01T12:25:00,0,20770458,190126
OK,312,17,683,312,2014-08-01T12:30:00,1,20770907,190126
OK,312,17,683,312,2014-08-01T12:35:00,3,20771356,190126
OK,284,19,683,284,2014-08-01T12:40:00,3,20771805,190126
OK,307,17,683,307,2014-08-01T12:45:00,2,20772254,190126
OK,330,16,683,330,2014-08-01T12:50:00,0,20772703,190126
OK,270,20,683,270,2014-08-01T12:55:00,1,20773152,190126
OK,258,21,683,258,2014-08-01T13:00:00,3,20773601,190126
OK,305,17,683,305,2014-08-01T13:05:00,5,20774050,190126
OK,326,16,683,326,2014-08-01T13:10:00,4,20774499,190126
OK,349,15,683,349,2014-08-01T13:15:00,1,20774948,190126
OK,483,11,683,483,2014-08-01T13:20:00,1,20775397,190126
OK,482,11,683,482,2014-08-01T13:25:00,2,20775846,190126
OK,482,11,683,482,2014-08-01T13:30:00,3,20776295,190126
OK,488,11,683,488,2014-08-01T13:35:00,1,20776744,190126
OK,326,16,683,326,2014-08-01T13:40:00,1,20777193,190126
OK,326,16,683,326,2014-08-01T13:45:00,0,20777642,190126
OK,326,16,683,326,2014-08-01T13:50:00,0,20778091,190126
OK,326,16,683,326,2014-08-01T13:55:00,0,20778540,190126
OK,426,12,683,426,2014-08-01T14:00:00,1,20778989,190126
OK,426,12,683,426,2014-08-01T14:05:00,0,20779438,190126
OK,426,12,683,426,2014-08-01T14:10:00,0,20779887,190126
OK,572,9,683,572,2014-08-01T14:15:00,2,20780336,190126
OK,573,9,683,573,2014-08-01T14:20:00,3,20780785,190126
OK,1174,4,683,1174,2014-08-01T14:25:00,2,20781234,190126
OK,719,7,683,719,2014-08-01T14:30:00,1,20781683,190126
OK,360,15,683,360,2014-08-01T14:35:00,5,20782132,190126
OK,349,15,683,349,2014-08-01T14:40:00,6,20782581,190126
OK,328,16,683,328,2014-08-01T14:45:00,1,20783030,190126
OK,328,16,683,328,2014-08-01T14:50:00,0,20783479,190126
OK,278,19,683,278,2014-08-01T14:55:00,1,20783928,190126
OK,292,18,683,292,2014-08-01T15:00:00,1,20784377,190126
OK,316,17,683,316,2014-08-01T15:05:00,2,20784826,190126
OK,362,14,683,362,2014-08-01T15:10:00,2,20785275,190126
OK,384,14,683,384,2014-08-01T15:15:00,0,20785724,190126
OK,384,14,683,384,2014-08-01T15:20:00,0,20786173,190126
OK,384,14,683,384,2014-08-01T15:25:00,0,20786622,190126
OK,463,11,683,463,2014-08-01T15:30:00,1,20787071,190126
OK,445,12,683,445,2014-08-01T15:35:00,2,20787520,190126
OK,391,13,683,391,2014-08-01T15:40:00,3,20787969,190126
OK,316,17,683,316,2014-08-01T15:45:00,2,20788418,190126
OK,255,21,683,255,2014-08-01T15:50:00,1,20788867,190126
OK,243,22,683,243,2014-08-01T15:55:00,2,20789316,190126
OK,263,20,683,263,2014-08-01T16:00:00,3,20789765,190126
OK,288,18,683,288,2014-08-01T16:05:00,2,20790214,190126
OK,292,18,683,292,2014-08-01T16:10:00,0,20790663,190126
OK,292,18,683,292,2014-08-01T16:15:00,0,20791112,190126
OK,203,26,683,203,2014-08-01T16:20:00,1,20791561,190126
OK,222,24,683,222,2014-08-01T16:25:00,2,20792010,190126
OK,258,21,683,258,2014-08-01T16:30:00,2,20792459,190126
OK,303,17,683,303,2014-08-01T16:35:00,2,20792908,190126
OK,370,14,683,370,2014-08-01T16:40:00,4,20793357,190126
OK,375,14,683,375,2014-08-01T16:45:00,1,20793806,190126
OK,481,11,683,481,2014-08-01T16:50:00,1,20794255,190126
OK,481,11,683,481,2014-08-01T16:55:00,1,20794704,190126
OK,481,11,683,481,2014-08-01T17:00:00,0,20795153,190126
OK,481,11,683,481,2014-08-01T17:05:00,0,20795602,190126
OK,481,11,683,481,2014-08-01T17:10:00,0,20796051,190126
OK,481,11,683,481,2014-08-01T17:15:00,0,20796500,190126
OK,471,11,683,471,2014-08-01T17:20:00,1,20796949,190126
OK,471,11,683,471,2014-08-01T17:25:00,1,20797398,190126
OK,471,11,683,471,2014-08-01T17:30:00,0,20797847,190126
OK,485,11,683,485,2014-08-01T17:35:00,3,20798296,190126
OK,469,11,683,469,2014-08-01T17:40:00,4,20798745,190126
OK,444,12,683,444,2014-08-01T17:45:00,2,20799194,190126
OK,491,11,683,491,2014-08-01T17:50:00,2,20799643,190126
OK,454,11,683,454,2014-08-01T17:55:00,3,20800092,190126
OK,458,11,683,458,2014-08-01T18:00:00,2,20800541,190126
OK,463,11,683,463,2014-08-01T18:05:00,0,20800990,190126
OK,385,14,683,385,2014-08-01T18:10:00,3,20801439,190126
OK,385,14,683,385,2014-08-01T18:15:00,3,20801888,190126
OK,257,21,683,257,2014-08-01T18:20:00,4,20802337,190126
OK,242,22,683,242,2014-08-01T18:25:00,3,20802786,190126
OK,273,19,683,273,2014-08-01T18:30:00,0,20803235,190126
OK,240,22,683,240,2014-08-01T18:35:00,1,20803684,190126
OK,247,21,683,247,2014-08-01T18:40:00,2,20804133,190126
OK,254,21,683,254,2014-08-01T18:45:00,0,20804582,190126
OK,265,20,683,265,2014-08-01T18:50:00,1,20805031,190126
OK,265,20,683,265,2014-08-01T18:55:00,0,20805480,190126
OK,265,20,683,265,2014-08-01T19:00:00,0,20805929,190126
OK,247,21,683,247,2014-08-01T19:05:00,2,20806378,190126
OK,288,18,683,288,2014-08-01T19:10:00,1,20806827,190126
OK,288,18,683,288,2014-08-01T19:15:00,0,20807276,190126
OK,288,18,683,288,2014-08-01T19:20:00,0,20807725,190126
OK,180,30,683,180,2014-08-01T19:25:00,1,20808174,190126
OK,180,30,683,180,2014-08-01T19:30:00,1,20808623,190126
OK,180,30,683,180,2014-08-01T19:35:00,0,20809072,190126
OK,146,37,683,146,2014-08-01T19:40:00,1,20809521,190126
OK,193,28,683,193,2014-08-01T19:45:00,2,20809970,190126
OK,241,22,683,241,2014-08-01T19:50:00,1,20810419,190126
OK,241,22,683,241,2014-08-01T19:55:00,0,20810868,190126
OK,229,23,683,229,2014-08-01T20:00:00,1,20811314,190126
OK,190,28,683,190,2014-08-01T20:05:00,3,20811487,190126
OK,208,26,683,208,2014-08-01T20:10:00,4,20811690,190126
OK,288,18,683,288,2014-08-01T20:15:00,2,20811896,190126
OK,316,17,683,316,2014-08-01T20:20:00,0,20812105,190126
OK,316,17,683,316,2014-08-01T20:25:00,0,20812324,190126
OK,316,17,683,316,2014-08-01T20:30:00,0,20812538,190126
OK,316,17,683,316,2014-08-01T20:35:00,0,20812949,190126
OK,316,17,683,316,2014-08-01T20:40:00,0,20813156,190126
OK,441,12,683,441,2014-08-01T20:50:00,1,20813367,190126
OK,441,12,683,441,2014-08-01T20:55:00,0,20813597,190126
OK,490,11,683,490,2014-08-01T21:00:00,2,20813835,190126
OK,490,11,683,490,2014-08-01T21:05:00,2,20814012,190126
OK,142,38,683,142,2014-08-01T21:10:00,1,20814251,190126
OK,311,17,683,311,2014-08-01T21:15:00,2,20814447,190126
OK,311,17,683,311,2014-08-01T21:20:00,0,20814654,190126
OK,213,25,683,213,2014-08-01T21:25:00,1,20814883,190126
OK,229,23,683,229,2014-08-01T21:30:00,2,20815159,190126
OK,246,22,683,246,2014-08-01T21:35:00,1,20815392,190126
OK,246,22,683,246,2014-08-01T21:40:00,1,20815616,190126
OK,246,22,683,246,2014-08-01T21:45:00,0,20815853,190126
OK,246,22,683,246,2014-08-01T21:50:00,0,20816094,190126
OK,241,22,683,241,2014-08-01T21:55:00,2,20816329,190126
OK,241,22,683,241,2014-08-01T22:00:00,0,20816597,190126
OK,241,22,683,241,2014-08-01T22:05:00,0,20817046,190126
OK,241,22,683,241,2014-08-01T22:10:00,0,20817368,190126
OK,241,22,683,241,2014-08-01T22:15:00,0,20817797,190126
OK,241,22,683,241,2014-08-01T22:20:00,0,20818087,190126
OK,241,22,683,241,2014-08-01T22:25:00,0,20818403,190126
OK,241,22,683,241,2014-08-01T22:30:00,0,20818737,190126
OK,189,28,683,189,2014-08-01T22:35:00,1,20819039,190126
OK,189,28,683,189,2014-08-01T22:40:00,0,20819221,190126
OK,189,28,683,189,2014-08-01T22:45:00,0,20819509,190126
OK,189,28,683,189,2014-08-01T22:50:00,0,20819744,190126
OK,161,33,683,161,2014-08-01T22:55:00,1,20819997,190126
OK,172,31,683,172,2014-08-01T23:00:00,2,20820173,190126
OK,335,16,683,335,2014-08-01T23:05:00,1,20820426,190126
OK,335,16,683,335,2014-08-01T23:10:00,0,20820656,190126
OK,335,16,683,335,2014-08-01T23:15:00,0,20820844,190126
OK,335,16,683,335,2014-08-01T23:20:00,0,20821094,190126
OK,335,16,683,335,2014-08-01T23:25:00,0,20821272,190126
OK,174,31,683,174,2014-08-01T23:30:00,1,20821498,190126
OK,174,31,683,174,2014-08-01T23:35:00,0,20821743,190126
OK,174,31,683,174,2014-08-01T23:40:00,0,20821922,190126
OK,174,31,683,174,2014-08-01T23:45:00,0,20822145,190126
OK,174,31,683,174,2014-08-01T23:50:00,0,20822412,190126
OK,174,31,683,174,2014-08-01T23:55:00,0,20822738,190126
OK,174,31,683,174,2014-08-02T00:00:00,0,20823036,190126
OK,174,31,683,174,2014-08-02T00:05:00,0,20823485,190126
OK,174,31,683,174,2014-08-02T00:10:00,0,20823934,190126
OK,174,31,683,174,2014-08-02T00:15:00,0,20824383,190126
OK,174,31,683,174,2014-08-02T00:20:00,0,20824832,190126
OK,174,31,683,174,2014-08-02T00:25:00,0,20825281,190126
OK,174,31,683,174,2014-08-02T00:30:00,0,20825730,190126
OK,174,31,683,174,2014-08-02T00:35:00,0,20826179,190126
OK,338,16,683,338,2014-08-02T00:40:00,1,20826628,190126
OK,338,16,683,338,2014-08-02T00:45:00,1,20827077,190126
OK,338,16,683,338,2014-08-02T00:50:00,0,20827526,190126
OK,338,16,683,338,2014-08-02T00:55:00,0,20827975,190126
OK,338,16,683,338,2014-08-02T01:00:00,0,20828424,190126
OK,338,16,683,338,2014-08-02T01:05:00,0,20828873,190126
OK,338,16,683,338,2014-08-02T01:10:00,0,20829322,190126
OK,338,16,683,338,2014-08-02T01:15:00,0,20829771,190126
OK,338,16,683,338,2014-08-02T01:20:00,0,20830220,190126
OK,285,19,683,285,2014-08-02T01:25:00,0,20830669,190126
OK,285,19,683,285,2014-08-02T01:30:00,0,20831118,190126
OK,285,19,683,285,2014-08-02T01:35:00,0,20831567,190126
OK,285,19,683,285,2014-08-02T01:40:00,0,20832016,190126
OK,362,14,683,362,2014-08-02T01:45:00,1,20832465,190126
OK,362,14,683,362,2014-08-02T01:50:00,0,20832914,190126
OK,362,14,683,362,2014-08-02T01:55:00,0,20833363,190126
OK,362,14,683,362,2014-08-02T02:00:00,0,20833812,190126
OK,362,14,683,362,2014-08-02T02:05:00,0,20834261,190126
OK,362,14,683,362,2014-08-02T02:10:00,0,20834710,190126
OK,362,14,683,362,2014-08-02T02:15:00,0,20835159,190126
OK,362,14,683,362,2014-08-02T02:20:00,0,20835608,190126
OK,362,14,683,362,2014-08-02T02:25:00,0,20836057,190126
OK,362,14,683,362,2014-08-02T02:30:00,0,20836506,190126
OK,362,14,683,362,2014-08-02T02:35:00,0,20836955,190126
OK,362,14,683,362,2014-08-02T02:40:00,0,20837404,190126
OK,362,14,683,362,2014-08-02T02:45:00,0,20837853,190126
OK,362,14,683,362,2014-08-02T02:50:00,0,20838302,190126
OK,194,27,683,194,2014-08-02T02:55:00,0,20838751,190126
OK,194,27,683,194,2014-08-02T03:00:00,0,20839200,190126
OK,194,27,683,194,2014-08-02T03:05:00,0,20839649,190126
OK,194,27,683,194,2014-08-02T03:10:00,0,20840098,190126
OK,194,27,683,194,2014-08-02T03:15:00,0,20840547,190126
OK,194,27,683,194,2014-08-02T03:20:00,0,20840996,190126
OK,194,27,683,194,2014-08-02T03:25:00,0,20841445,190126
OK,194,27,683,194,2014-08-02T03:30:00,0,20841894,190126
OK,194,27,683,194,2014-08-02T03:35:00,0,20842343,190126
OK,194,27,683,194,2014-08-02T03:40:00,0,20842792,190126
OK,194,27,683,194,2014-08-02T03:45:00,0,20843241,190126
OK,194,27,683,194,2014-08-02T03:50:00,0,20843690,190126
OK,194,27,683,194,2014-08-02T03:55:00,0,20844139,190126
OK,194,27,683,194,2014-08-02T04:00:00,0,20844588,190126
OK,194,27,683,194,2014-08-02T04:05:00,0,20844719,190126
OK,285,19,683,285,2014-08-02T04:10:00,1,20845049,190126
OK,285,19,683,285,2014-08-02T04:15:00,1,20845229,190126
OK,285,19,683,285,2014-08-02T04:20:00,0,20845585,190126
OK,285,19,683,285,2014-08-02T04:25:00,0,20845953,190126
OK,285,19,683,285,2014-08-02T04:30:00,0,20846141,190126
OK,285,19,683,285,2014-08-02T04:35:00,0,20846508,190126
OK,285,19,683,285,2014-08-02T04:40:00,0,20846891,190126
OK,285,19,683,285,2014-08-02T04:45:00,0,20847150,190126
OK,285,19,683,285,2014-08-02T04:50:00,0,20847516,190126
OK,285,19,683,285,2014-08-02T04:55:00,0,20847873,190126
OK,285,19,683,285,2014-08-02T05:00:00,0,20848233,190126
OK,135,40,683,135,2014-08-02T05:05:00,1,20848397,190126
OK,135,40,683,135,2014-08-02T05:10:00,1,20848751,190126
OK,135,40,683,135,2014-08-02T05:15:00,0,20848943,190126
OK,135,40,683,135,2014-08-02T05:20:00,0,20849287,190126
OK,135,40,683,135,2014-08-02T05:30:00,0,20849812,190126
OK,135,40,683,135,2014-08-02T05:35:00,0,20850084,190126
OK,135,40,683,135,2014-08-02T05:40:00,0,20850377,190126
OK,135,40,683,135,2014-08-02T05:45:00,0,20850678,190126
OK,135,40,683,135,2014-08-02T05:50:00,0,20851036,190126
OK,211,25,683,211,2014-08-02T05:55:00,1,20851290,190126
OK,211,25,683,211,2014-08-02T06:00:00,1,20851593,190126
OK,211,25,683,211,2014-08-02T06:05:00,0,20852042,190126
OK,211,25,683,211,2014-08-02T06:10:00,0,20852491,190126
OK,211,25,683,211,2014-08-02T06:15:00,0,20852940,190126
OK,309,17,683,309,2014-08-02T06:20:00,1,20853389,190126
OK,309,17,683,309,2014-08-02T06:25:00,1,20853838,190126
OK,154,35,683,154,2014-08-02T06:30:00,1,20854287,190126
OK,154,35,683,154,2014-08-02T06:35:00,0,20854736,190126
OK,154,35,683,154,2014-08-02T06:40:00,0,20855185,190126
OK,178,30,683,178,2014-08-02T06:45:00,1,20855634,190126
OK,178,30,683,178,2014-08-02T06:50:00,1,20856083,190126
OK,178,30,683,178,2014-08-02T06:55:00,0,20856532,190126
OK,178,30,683,178,2014-08-02T07:00:00,0,20856981,190126
OK,178,30,683,178,2014-08-02T07:05:00,0,20857430,190126
OK,178,30,683,178,2014-08-02T07:10:00,0,20857879,190126
OK,178,30,683,178,2014-08-02T07:15:00,0,20858328,190126
OK,178,30,683,178,2014-08-02T07:20:00,0,20858777,190126
OK,156,34,683,156,2014-08-02T07:25:00,2,20859226,190126
OK,173,31,683,173,2014-08-02T07:30:00,4,20859675,190126
OK,187,29,683,187,2014-08-02T07:35:00,2,20860124,190126
OK,222,24,683,222,2014-08-02T07:40:00,0,20860573,190126
OK,222,24,683,222,2014-08-02T07:45:00,0,20861022,190126
OK,222,24,683,222,2014-08-02T07:50:00,0,20861471,190126
OK,238,22,683,238,2014-08-02T07:55:00,1,20861920,190126
OK,245,22,683,245,2014-08-02T08:00:00,2,20862369,190126
OK,253,21,683,253,2014-08-02T08:05:00,1,20862818,190126
OK,213,25,683,213,2014-08-02T08:10:00,1,20863267,190126
OK,213,25,683,213,2014-08-02T08:15:00,0,20863716,190126
OK,213,25,683,213,2014-08-02T08:20:00,0,20864165,190126
OK,260,20,683,260,2014-08-02T08:25:00,1,20864614,190126
OK,224,24,683,224,2014-08-02T08:30:00,8,20865063,190126
OK,215,25,683,215,2014-08-02T08:35:00,7,20865512,190126
OK,215,25,683,215,2014-08-02T08:40:00,1,20865961,190126
OK,233,23,683,233,2014-08-02T08:45:00,2,20866410,190126
OK,206,26,683,206,2014-08-02T08:50:00,4,20866859,190126
OK,184,29,683,184,2014-08-02T08:55:00,2,20867308,190126
OK,184,29,683,184,2014-08-02T09:00:00,0,20867757,190126
OK,184,29,683,184,2014-08-02T09:05:00,0,20868206,190126
OK,184,29,683,184,2014-08-02T09:10:00,0,20868655,190126
OK,255,21,683,255,2014-08-02T09:15:00,4,20869104,190126
OK,237,22,683,237,2014-08-02T09:20:00,4,20869553,190126
OK,259,20,683,259,2014-08-02T09:25:00,5,20870002,190126
OK,252,21,683,252,2014-08-02T09:30:00,6,20870451,190126
OK,232,23,683,232,2014-08-02T09:35:00,2,20870900,190126
OK,219,24,683,219,2014-08-02T09:40:00,3,20871349,190126
OK,196,27,683,196,2014-08-02T09:45:00,2,20871798,190126
OK,329,16,683,329,2014-08-02T09:50:00,1,20872247,190126
OK,277,19,683,277,2014-08-02T09:55:00,3,20872696,190126
OK,270,20,683,270,2014-08-02T10:00:00,2,20873145,190126
OK,327,16,683,327,2014-08-02T10:05:00,1,20873594,190126
OK,327,16,683,327,2014-08-02T10:10:00,1,20874043,190126
OK,374,14,683,374,2014-08-02T10:15:00,1,20874492,190126
OK,374,14,683,374,2014-08-02T10:20:00,1,20874941,190126
OK,343,15,683,343,2014-08-02T10:25:00,1,20875390,190126
OK,343,15,683,343,2014-08-02T10:30:00,1,20875839,190126
OK,206,26,683,206,2014-08-02T10:35:00,1,20876288,190126
OK,206,26,683,206,2014-08-02T10:40:00,1,20876737,190126
OK,206,26,683,206,2014-08-02T10:45:00,0,20877186,190126
OK,343,15,683,343,2014-08-02T10:50:00,1,20877635,190126
OK,314,17,683,314,2014-08-02T10:55:00,2,20878084,190126
OK,286,18,683,286,2014-08-02T11:00:00,0,20878533,190126
OK,286,18,683,286,2014-08-02T11:05:00,0,20878982,190126
OK,286,18,683,286,2014-08-02T11:10:00,0,20879431,190126
OK,352,15,683,352,2014-08-02T11:15:00,2,20879880,190126
OK,353,15,683,353,2014-08-02T11:20:00,3,20880329,190126
OK,390,13,683,390,2014-08-02T11:25:00,1,20880778,190126
OK,274,19,683,274,2014-08-02T11:30:00,2,20881227,190126
OK,274,19,683,274,2014-08-02T11:35:00,2,20881676,190126
OK,276,19,683,276,2014-08-02T11:40:00,2,20882125,190126
OK,249,21,683,249,2014-08-02T11:45:00,3,20882574,190126
OK,300,18,683,300,2014-08-02T11:50:00,2,20883023,190126
OK,341,15,683,341,2014-08-02T11:55:00,4,20883472,190126
OK,341,15,683,341,2014-08-02T12:00:00,4,20883921,190126
OK,315,17,683,315,2014-08-02T12:05:00,1,20884370,190126
OK,315,17,683,315,2014-08-02T12:10:00,0,20884819,190126
OK,315,17,683,315,2014-08-02T12:15:00,0,20885268,190126
OK,315,17,683,315,2014-08-02T12:20:00,0,20885717,190126
OK,315,17,683,315,2014-08-02T12:25:00,0,20886166,190126
OK,323,16,683,323,2014-08-02T12:30:00,2,20886615,190126
OK,251,21,683,251,2014-08-02T12:35:00,2,20887064,190126
OK,260,20,683,260,2014-08-02T12:40:00,1,20887513,190126
OK,260,20,683,260,2014-08-02T12:45:00,0,20887962,190126
OK,477,11,683,477,2014-08-02T12:50:00,4,20888411,190126
OK,487,11,683,487,2014-08-02T12:55:00,4,20888860,190126
OK,477,11,683,477,2014-08-02T13:00:00,2,20889309,190126
OK,295,18,683,295,2014-08-02T13:05:00,4,20889758,190126
OK,366,14,683,366,2014-08-02T13:10:00,5,20890207,190126
OK,396,13,683,396,2014-08-02T13:15:00,5,20890656,190126
OK,386,14,683,386,2014-08-02T13:20:00,2,20891105,190126
OK,311,17,683,311,2014-08-02T13:25:00,0,20891554,190126
OK,202,26,683,202,2014-08-02T13:30:00,1,20892003,190126
OK,202,26,683,202,2014-08-02T13:35:00,1,20892452,190126
OK,248,21,683,248,2014-08-02T13:40:00,2,20892901,190126
OK,277,19,683,277,2014-08-02T13:45:00,3,20893350,190126
OK,277,19,683,277,2014-08-02T13:50:00,3,20893799,190126
OK,297,18,683,297,2014-08-02T13:55:00,0,20894248,190126
OK,297,18,683,297,2014-08-02T14:00:00,0,20894697,190126
OK,297,18,683,297,2014-08-02T14:05:00,1,20895146,190126
OK,297,18,683,297,2014-08-02T14:10:00,1,20895595,190126
OK,400,13,683,400,2014-08-02T14:15:00,2,20896044,190126
OK,400,13,683,400,2014-08-02T14:20:00,4,20896493,190126
OK,388,13,683,388,2014-08-02T14:25:00,4,20896942,190126
OK,401,13,683,401,2014-08-02T14:30:00,0,20897391,190126
OK,251,21,683,251,2014-08-02T14:35:00,1,20897840,190126
OK,251,21,683,251,2014-08-02T14:40:00,0,20898289,190126
OK,190,28,683,190,2014-08-02T14:45:00,1,20898738,190126
OK,141,38,683,141,2014-08-02T14:50:00,1,20899187,190126
OK,141,38,683,141,2014-08-02T14:55:00,0,20899636,190126
OK,141,38,683,141,2014-08-02T15:00:00,0,20900085,190126
OK,288,18,683,288,2014-08-02T15:05:00,1,20900534,190126
OK,288,18,683,288,2014-08-02T15:10:00,1,20900983,190126
OK,415,13,683,415,2014-08-02T15:15:00,4,20901432,190126
OK,414,13,683,414,2014-08-02T15:20:00,5,20901881,190126
OK,335,16,683,335,2014-08-02T15:25:00,2,20902330,190126
OK,302,17,683,302,2014-08-02T15:30:00,3,20902779,190126
OK,378,14,683,378,2014-08-02T15:35:00,3,20903228,190126
OK,378,14,683,378,2014-08-02T15:40:00,1,20903677,190126
OK,338,16,683,338,2014-08-02T15:45:00,1,20904126,190126
OK,356,15,683,356,2014-08-02T15:50:00,6,20904575,190126
OK,270,20,683,270,2014-08-02T15:55:00,5,20905024,190126
OK,270,20,683,270,2014-08-02T16:00:00,5,20905473,190126
OK,285,19,683,285,2014-08-02T16:05:00,4,20905922,190126
OK,223,24,683,223,2014-08-02T16:10:00,3,20906371,190126
OK,388,13,683,388,2014-08-02T16:15:00,1,20906820,190126
OK,374,14,683,374,2014-08-02T16:20:00,2,20907269,190126
OK,361,15,683,361,2014-08-02T16:25:00,2,20907718,190126
OK,355,15,683,355,2014-08-02T16:30:00,2,20908167,190126
OK,322,16,683,322,2014-08-02T16:35:00,3,20908616,190126
OK,319,17,683,319,2014-08-02T16:40:00,5,20909065,190126
OK,300,18,683,300,2014-08-02T16:45:00,1,20909514,190126
OK,540,10,683,540,2014-08-02T16:50:00,1,20909963,190126
OK,471,11,683,471,2014-08-02T16:55:00,2,20910412,190126
OK,385,14,683,385,2014-08-02T17:00:00,2,20910861,190126
OK,414,13,683,414,2014-08-02T17:05:00,3,20911310,190126
OK,414,13,683,414,2014-08-02T17:10:00,3,20911759,190126
OK,414,13,683,414,2014-08-02T17:15:00,0,20912208,190126
OK,449,12,683,449,2014-08-02T17:20:00,2,20912657,190126
OK,449,12,683,449,2014-08-02T17:25:00,2,20913106,190126
OK,415,13,683,415,2014-08-02T17:30:00,1,20913555,190126
OK,360,15,683,360,2014-08-02T17:35:00,2,20914004,190126
OK,305,17,683,305,2014-08-02T17:40:00,2,20914453,190126
OK,305,17,683,305,2014-08-02T17:45:00,0,20914902,190126
OK,305,17,683,305,2014-08-02T17:50:00,0,20915351,190126
OK,305,17,683,305,2014-08-02T17:55:00,0,20915800,190126
OK,206,26,683,206,2014-08-02T18:00:00,2,20916249,190126
OK,206,26,683,206,2014-08-02T18:05:00,2,20916698,190126
OK,160,33,683,160,2014-08-02T18:10:00,1,20917147,190126
OK,160,33,683,160,2014-08-02T18:15:00,1,20917596,190126
OK,160,33,683,160,2014-08-02T18:20:00,0,20918045,190126
OK,160,33,683,160,2014-08-02T18:25:00,0,20918494,190126
OK,160,33,683,160,2014-08-02T18:30:00,0,20918943,190126
OK,160,33,683,160,2014-08-02T18:35:00,0,20919392,190126
OK,239,22,683,239,2014-08-02T18:40:00,2,20919841,190126
OK,246,22,683,246,2014-08-02T18:45:00,1,20920290,190126
OK,246,22,683,246,2014-08-02T18:50:00,1,20920739,190126